Regional Weather Roundup
Issued by NWS

Home | Current Version | Previous Version | Graphics & Text | Print | Product List | Glossary On
Versions: 1 2 3 4 5 6 7 8 9 10 11 12 13 14 15 16 17 18 19 20 21 22 23 24 25 26 27 28 29 30 31 32 33 34 35 36 37 38 39 40 41 42 43 44 45 46 47 48 49 50
000
ASUS45 KTFX 222210
RWRMT
MONTANA REGIONAL WEATHER ROUNDUP
NATIONAL WEATHER SERVICE GREAT FALLS MT
300 PM MST SUN JAN 22 2017

NOTE: "FAIR" INDICATES FEW OR NO CLOUDS BELOW 12000 FEET WITH NO
SIGNIFICANT WEATHER AND/OR OBSTRUCTIONS TO VISIBILITY.

MTZ001>007-043-222300-
WEST OF THE DIVIDE

CITY           SKY/WX    TMP DP  RH WIND       PRES   REMARKS
KALISPELL      MOSUNNY   31  24  75 W7        29.64F WCI  24
MISSOULA       PTSUNNY   26  21  81 CALM      29.65F
BUTTE          CLOUDY    25  14  63 CALM      29.65F
MULLAN PASS    CLOUDY    25  22  88 SE9       29.53F WCI  15
ANACONDA         N/A     34  18  51 SE14G22   29.65S WCI  24
DEER LODGE       N/A     34  19  55 S9        29.67R WCI  26
EUREKA           N/A     37  27  65 CALM      29.69F
HAMILTON         N/A     28  21  74 NE3       29.67R
PLAINS           N/A     29  24  81 E8        29.69  WCI  21
RONAN            N/A     27  25  92 CALM      29.71F VSB 0
$$

MTZ008-052>055-222300-
SOUTHWEST MONTANA

CITY           SKY/WX    TMP DP  RH WIND       PRES   REMARKS
BOZEMAN        MOSUNNY   28  19  69 CALM      29.70F
DILLON         CLOUDY   N/A N/A N/A W3        29.67F
W YELLOWSTONE  CLOUDY    27  19  74 SW5       29.73F
ENNIS          SUNNY     32  21  64 S24G37    29.71F WCI  19
TWIN BRIDGES     N/A     27  15  60 CALM      29.72F
$$

MTZ009-010-012-014-046-048-049-054-222300-
EAST SLOPES AND CENTRAL MONTANA

CITY           SKY/WX    TMP DP  RH WIND       PRES   REMARKS
CUT BANK       CLOUDY    24  23  96 E7        29.73F FOG     WCI  16
GREAT FALLS    SUNNY     32  24  72 NE9       29.72F WCI  24
MALMSTROM AFB  SUNNY     29  26  88 NE12      29.73F WCI  20
HELENA         SUNNY     25  15  66 W3        29.70F
AUGUSTA          N/A     29  24  81 NE10      29.68F WCI  20
BOWMANS CRNR     N/A     34  19  54 SE5       29.66F
CHOTEAU        FOG       25  25 100 NE7       29.73S VSB 0   WCI  17
CONRAD           N/A     25  25 100 W7        29.78F VSB 0   WCI  17
POWER            N/A     26  24  93 NE9       29.71F WCI  16
RAYNESFORD       N/A     38  21  49 E9        29.70F WCI  32
ULM              N/A     35  28  75 MISG      29.70F
$$

MTZ011-013-016-021-045-047-050-051-222300-
NORTH CENTRAL MONTANA

CITY           SKY/WX    TMP DP  RH WIND       PRES   REMARKS
HAVRE          CLOUDY    29  27  92 W3        29.81F
LEWISTOWN      SUNNY     39  19  44 NE3       29.72F
CHINOOK          N/A     30  27  86 SW6       29.82S WCI  24
DENTON           N/A     29  27  90 NE12      29.71F WCI  19
FORT BENTON      N/A     28  25  86 MISG      29.79F
GEYSER           N/A     33  25  73 E8        29.71F WCI  26
GRASS RANGE      N/A     30  26  84 NE6       29.73F WCI  24
JUDITH GAP       N/A     37  18  45 SW17      29.71F WCI  27
ROY            CLOUDY    26  25  95 MISG      29.76F FOG
STANFORD         N/A     34  26  73 NE6       29.71F WCI  29
WINIFRED       PTSUNNY   26  26  99 E10       29.75F FOG     WCI  16
$$

MTZ017>020-022>027-061-062-222300-
NORTHEAST MONTANA

CITY           SKY/WX    TMP DP  RH WIND       PRES   REMARKS
GLASGOW        CLOUDY    31  26  82 W10       29.80F WCI  22
JORDAN           N/A     30  25  81 NW10      29.82S WCI  21
SIDNEY         CLOUDY    31  26  82 W9        29.83S WCI  23
WOLF POINT     PTSUNNY   33  25  72 W7        29.82F WCI  27
PLENTYWOOD       N/A    N/A N/A N/A W16       29.78R
POPLAR           N/A     30  21  69 NW10      29.83S WCI  21
SCOBEY           N/A     28  18  66 W10       29.78S WCI  19
$$

MTZ028>42-056>058-222300-
SOUTHCENTRAL AND SOUTHEAST MONTANA

CITY           SKY/WX    TMP DP  RH WIND       PRES   REMARKS
BAKER          CLOUDY    23  21  92 W15       29.84R FOG     WCI  10
BILLINGS       MOSUNNY   36  22  56 SW8       29.77F WCI  30
LIVINGSTON     SUNNY     39  15  37 SW23      29.69F WCI  28
MILES CITY     CLOUDY    25  21  85 S5        29.85S FOG
BIG TIMBER     SUNNY     37  18  44 SE12      29.73F WCI  30
EKALAKA          N/A     28  19  69 SW7       29.81S WCI  21
FORSYTH          N/A     25  19  80 E5        29.83F
HARLOWTON        N/A     39  17  40 S6        29.72F
LAUREL           N/A     37  20  50 SE1       29.77F
ROUNDUP          N/A     40  21  46 N6        29.70F
$$

REGIONAL REPORTS...DAKOTAS

CITY           SKY/WX    TMP DP  RH WIND       PRES   REMARKS
WILLISTON      CLOUDY    31  26  82 W10       29.80S WCI  22
MINOT          CLOUDY    34  28  79 W13       29.75S WCI  25
DICKINSON      CLOUDY    27  23  85 NW18      29.78R WCI  14
BEACH          CLOUDY    27  27 100 W14       29.85R WCI  15
CROSBY         CLOUDY    28  28 100 W15       29.79S WCI  17
TIOGA          CLOUDY    28  28 100 W14       29.77S WCI  17
WATFORD CITY   CLOUDY    30  27  86 W16       29.80S WCI  19
BISMARCK       CLOUDY    32  28  85 W10       29.81R WCI  24
GRAND FORKS    CLOUDY    33  28  81 W8        29.74R HAZE    WCI  26
FARGO          CLOUDY    36  32  85 W6        29.76R FOG     WCI  31
BUFFALO SD       N/A     31  24  75 NW9       29.76R WCI  23
RAPID CITY     SUNNY     40  23  50 SE5       29.84R
$$

REGIONAL REPORTS...WYOMING/IDAHO/WASHINGTON

CITY           SKY/WX    TMP DP  RH WIND       PRES   REMARKS
GILLETTE       SUNNY     40  22  48 SE7       29.82F
SHERIDAN       SUNNY     38  22  52 SE17      29.78F WCI  28
BUFFALO WY     SUNNY     33  22  63 SE6       29.78F WCI  28
CODY           SUNNY     34  19  55 SE16      29.75F WCI  23
YELLOWSTONE LA   N/A     23  14  68 VRB3      29.74F
IDAHO FALLS    CLOUDY    34  22  61 S10       29.77F WCI  26
SALMON         CLOUDY    19  14  79 CALM      29.69F
BOISE          CLOUDY    40  30  67 SE17G29   29.61S
SPOKANE        CLOUDY    40  28  62 SE10      29.56S
$$

REGIONAL REPORTS...ALBERTA

CITY           SKY/WX    TMP DP  RH WIND       PRES   REMARKS
EDMONTON       CLOUDY    16   9  73 NE2       29.90F
CALGARY        LGT SNOW  23  19  86 E7        29.78S FOG     WCI  15
LETHBRIDGE     CLOUDY    25  25 100 NE6       29.80S FOG     WCI  18
MEDICINE HAT   LGT SNOW  27  25  93 N6        29.83S FOG     WCI  20
WATERTON GATE    N/A     25  23  93 E7          N/A  WCI  17
CARDSTON         N/A     25  23  93 NE3         N/A
MILK RIVER       N/A     27  25  93 NE3         N/A
$$

REGIONAL REPORTS...SASKATCHEWAN

CITY           SKY/WX    TMP DP  RH WIND       PRES   REMARKS
SWIFT CURRENT  CLOUDY    21  21 100 NW15      29.76S FOG     WCI   8
REGINA         FLURRIES  27  23  86 NW17      29.75R WCI  14
SASKATOON      FLURRIES  21  16  79 N9        29.82R WCI  11
CYPRESS HILLS    N/A     25  21  86 NW2         N/A
VAL MARIE        N/A     30  27  86 NW6         N/A  WCI  24
ROCKGLEN         N/A     25  23  93 NW9         N/A  WCI  15
ASSINIBOIA       N/A     18  18 100 N2          N/A
$$



USA.gov is the U.S. government's official web portal to all federal, state and local government web resources and services.